Terug naar catalogus

COSMOS 1053

ActiefNavigatieLEO
NORAD 11130·PAYLOAD·🇷🇺 Russia

Gelanceerd Dec 5, 1978 vanaf Plesetsk Cosmodrome

Loading…

Volgende Passages (komende 24 uur)

TLE

VersSource: Space-Track

Epoch: Sep 14, 2026, 15:53 UTC

1 11130U 78109C   26257.66183653  .00000010  00000-0  16754-3 0  9998
2 11130  74.0153 128.6173 0036725 127.4187 244.5584 12.51509605182691

Volg COSMOS 1053 in realtime met AllMySat

Download on the App Store